Regional Weather Roundup
Issued by NWS

Home | Current Version | Previous Version | Text Only | Print | Product List | Glossary Off
Versions: 1 2 3 4 5 6 7 8 9 10 11 12 13 14 15 16 17 18 19 20 21 22 23 24 25 26 27 28 29 30 31 32 33 34 35 36 37 38 39 40 41 42 43 44 45 46 47 48 49

000
ASUS45 KCYS 260910
RWRWY

WYOMING REGIONAL WEATHER ROUNDUP
NATIONAL WEATHER SERVICE CHEYENNE WY
200 AM MST MON JAN 26 2015

NOTE:  "FAIR" INDICATES FEW OR NO CLOUDS BELOW 12,000 FEET
WITH NO SIGNIFICANT WEATHER AND/OR OBSTRUCTIONS TO VISIBILITY.

WYZ001-261000-
YELLOWSTONE NATIONAL PARK

CITY           SKY/WX    TMP DP  RH WIND       PRES   REMARKS
LK YELLOWSTONE   N/A     23  21  92 CALM      30.45F
W YELLOWSTONE  NOT AVBL

$$
WYZ002>013-054>058-071-098>099-261000-
NORTHERN WYOMING

CITY           SKY/WX    TMP DP  RH WIND       PRES   REMARKS
JACKSON        CLOUDY    25  25 100 CALM      30.46S VSB 3/4
CODY           FAIR      55  23  28 W7        30.19S
GREYBULL       FAIR      20  19  96 CALM      30.23R
WORLAND        FAIR      25  21  85 CALM      30.22R
SHERIDAN       FAIR      38  27  64 S5        30.10S WCI  34
BUFFALO        FAIR      41  27  57 SW6       30.14S
GILLETTE       FAIR      45  29  53 W14       30.10R
HULETT           N/A    N/A N/A N/A MISG        N/A
NEWCASTLE      FAIR      36  30  80 N10       30.09R WCI  28

$$
WYZ014>020-022>026-101>103-261000-
CENTRAL WYOMING

CITY           SKY/WX    TMP DP  RH WIND       PRES   REMARKS
BIG PINEY      FAIR      33  25  72 N15       30.36F WCI  23
PINEDALE       FAIR      25  21  86 NE3       30.35F
DUBOIS         FAIR      43  23  45 NW15      30.34R
LANDER         FAIR      33  25  72 S3        30.24S
RIVERTON       FAIR      29  24  82 NW5       30.26S WCI  24
CASPER         FAIR      43  27  53 SW10      30.21S
DOUGLAS        FAIR      40  29  64 NW10      30.19S WCI  33

$$
WYZ021-027>030-104>119-261000-
SOUTHERN WYOMING

CITY           SKY/WX    TMP DP  RH WIND       PRES   REMARKS
EVANSTON       FAIR      28  26  92 SE3       30.42S
KEMMERER       FAIR      30  28  93 CALM      30.40S
FORT BRIDGER   FAIR      40  28  60 W12       30.41S WCI  33
ROCK SPRINGS   FAIR      33  27  78 CALM      30.36F
DIXON          FAIR      32  25  76 E5        30.42S WCI  27
RAWLINS        FAIR      37  26  64 SW15G24   30.35R WCI  28
SARATOGA       FAIR      30  25  80 W3        30.37S
LARAMIE        FAIR      26  22  84 S7        30.29S WCI  18
CHEYENNE       FAIR      47  23  38 NW12      30.20F
TORRINGTON     FAIR      41  29  62 NW12      30.13S
PINE BLUFFS    FAIR      45  28  53 W17       30.18S

$$


USA.gov is the U.S. government's official web portal to all federal, state and local government web resources and services.